Regional Weather Roundup
Issued by NWS State College, PA

Home | Current Version | Previous Version | Graphics & Text | Print | Product List | Glossary Off
Versions: 1 2 3 4 5 6 7 8 9 10 11 12 13 14 15 16 17 18 19 20 21 22 23 24 25 26 27 28 29 30 31 32 33 34 35 36 37 38 39 40 41 42 43 44 45 46 47 48 49 50

000
ASUS41 KCTP 260410
RWRCTP

REGIONAL WEATHER ROUNDUP
NATIONAL WEATHER SERVICE STATE COLLEGE PA
1100 PM EST SUN JAN 25 2015

Note: "fair" indicates few or no clouds below 12,000 feet with no
significant weather and/or obstructions to visibility.

* = STATION THAT DOES NOT REPORT PRECIPITATION /E.G. RAIN...SNOW...ETC/
    THUNDER OR FOG.

PAZ002>004-007>009-013>016-020>023-029>032-260500-
WESTERN PENNSYLVANIA

CITY           SKY/WX    TMP DP  RH WIND       PRES   REMARKS
ERIE           CLOUDY    17   6  62 NE20      29.94S WCI   1
MEADVILLE      CLOUDY    18  12  77 NE9       29.84S WCI   7
FRANKLIN*      CLOUDY    21  14  73 NE8       29.84S WCI  12
NEW CASTLE     LGT SNOW  23  21  92 N9        29.83F FOG     WCI  13
BEAVER COUNTY  NOT AVBL
BUTLER*        CLOUDY    27  25  93 NE12      29.80F
PITTSBURGH INT SNOW      30  29  96 NE7       29.77F VSB 1/2
PITTSBURGH     LGT SNOW  30  27  88 N6        29.75F VSB 3/4
INDIANA*       FOG       30  30 100 E8        29.82S VSB 1
LATROBE        LGT SNOW  32  32 100 N3        29.78F VSB 3/4
WASHINGTON CO* CLOUDY    32  30  93 NE5       29.77F
$$

PAZ004>006-010>012-017>019-024>028-033>037-041-042-045-046-049>053-260500-
CENTRAL PENNSYLVANIA

CITY           SKY/WX    TMP DP  RH WIND       PRES   REMARKS
BRADFORD       CLOUDY    15   5  64 NE7       29.83S WCI   5
DUBOIS         LGT SNOW  24  21  88 NE9       29.79F VSB 3/4 WCI  14
CLEARFIELD     LGT SNOW  26  23  88 E10       29.84R FOG
JOHNSTOWN      LGT SNOW  30  28  92 E6        29.73S VSB 3/4
ALTOONA        LGT SNOW  31  30  96 NE8       29.80F FOG
STATE COLLEGE  LGT SNOW  26  24  89 NE14      29.87S WCI  15
WILLIAMSPORT   LGT SNOW  24  16  71 NE7       29.98R
SELINSGROVE    LGT SNOW  27  22  81 NE15      29.95R
FT INDIANTOWN  LGT SNOW  30  28  91 NE7       29.92S FOG
CAPITAL CITY   LGT SNOW  34  31  88 E10       29.90S FOG
HARRISBURG     LGT SNOW  33  31  92 E7        29.89F FOG
YORK           LGT SNOW  34  32  92 NE6       29.88S FOG
$$

PAZ038>040-043-044-047-048-054-055-060>062-067>071-260500-
EASTERN PENNSYLVANIA

CITY           SKY/WX    TMP DP  RH WIND       PRES   REMARKS
SCRANTON       CLOUDY    21   6  52 N8        29.97R WCI  11
MOUNT POCONO   CLOUDY    20   7  57 N7        29.87S WCI  11
ALLENTOWN      CLOUDY    30  16  56 NE10      29.97R
QUAKERTOWN*    NOT AVBL
READING        CLOUDY    30  24  78 NE9       29.94R
LANCASTER      LGT SNOW  33  29  85 E14       29.90S FOG
COATESVILLE    LGT SNOW  34  34 100 NE7       29.91R
POTTSTOWN      CLOUDY    31  24  75 NE10      29.95R
BLUE BELL      CLOUDY    34  23  64 NE6       29.94R
DOYLESTOWN     CLOUDY    28  23  81 NE7       29.95R
WILLOW GROVE   NOT AVBL
NORTH PHILA    CLOUDY    36  19  50 NE13      29.97R
PHILADELPHIA   FLURRIES  35  28  75 E10       29.96R
$$


USA.gov is the U.S. government's official web portal to all federal, state and local government web resources and services.